TimeEDT,TemperatureF,Dew PointF,Humidity,Sea Level PressureIn,VisibilityMPH,Wind Direction,Wind SpeedMPH,Gust SpeedMPH,PrecipitationIn,Events,Conditions,WindDirDegrees,DateUTC
12:15 AM,73.4,73.4,100,30.02,9.0,SE,8.1,-,N/A,,Overcast,130,2013-07-14 04:15:00
12:35 AM,73.4,73.4,100,30.02,9.0,SSE,5.8,-,N/A,,Scattered Clouds,150,2013-07-14 04:35:00
12:55 AM,73.4,73.4,100,30.02,9.0,SSE,5.8,-,N/A,,Clear,150,2013-07-14 04:55:00
1:15 AM,73.4,73.4,100,30.02,10.0,SE,5.8,-,N/A,,Clear,130,2013-07-14 05:15:00
1:35 AM,71.6,71.6,100,30.02,9.0,SE,6.9,-,N/A,,Clear,130,2013-07-14 05:35:00
1:55 AM,71.6,71.6,100,30.02,8.0,ESE,3.5,-,N/A,,Clear,110,2013-07-14 05:55:00
2:15 AM,71.6,71.6,100,30.01,8.0,ESE,4.6,-,N/A,,Clear,110,2013-07-14 06:15:00
2:35 AM,71.6,71.6,100,30.01,7.0,ESE,5.8,-,N/A,,Clear,120,2013-07-14 06:35:00
2:55 AM,71.6,71.6,100,30.01,7.0,ESE,5.8,-,N/A,,Clear,110,2013-07-14 06:55:00
3:15 AM,71.6,71.6,100,30.00,9.0,ESE,4.6,-,N/A,,Clear,110,2013-07-14 07:15:00
3:35 AM,69.8,-9999,N/A,30.00,8.0,ESE,5.8,-,N/A,,Clear,120,2013-07-14 07:35:00
3:55 AM,69.8,69.8,100,30.00,7.0,ESE,6.9,-,N/A,,Clear,110,2013-07-14 07:55:00
4:15 AM,69.8,69.8,100,30.00,8.0,ESE,6.9,-,N/A,,Clear,120,2013-07-14 08:15:00
4:35 AM,69.8,69.8,100,30.00,10.0,SE,5.8,-,N/A,,Clear,130,2013-07-14 08:35:00
4:55 AM,69.8,69.8,100,30.00,7.0,ESE,5.8,-,N/A,,Clear,120,2013-07-14 08:55:00
5:15 AM,69.8,69.8,100,30.00,6.0,ESE,6.9,-,N/A,,Clear,120,2013-07-14 09:15:00
5:35 AM,69.8,-9999,N/A,30.00,8.0,SE,5.8,-,N/A,,Clear,130,2013-07-14 09:35:00
5:55 AM,69.8,-9999,N/A,30.01,8.0,SE,4.6,-,N/A,,Clear,130,2013-07-14 09:55:00
6:15 AM,69.8,-9999,N/A,30.01,6.0,ESE,5.8,-,N/A,,Haze,120,2013-07-14 10:15:00
6:35 AM,69.8,-9999,N/A,30.02,8.0,ESE,5.8,-,N/A,,Clear,120,2013-07-14 10:35:00
6:55 AM,69.8,-9999,N/A,30.01,5.0,ESE,4.6,-,N/A,,Haze,110,2013-07-14 10:55:00
7:15 AM,71.6,-9999,N/A,30.02,5.0,ESE,3.5,-,N/A,,Haze,120,2013-07-14 11:15:00
3:35 PM,73.4,73.4,100,30.08,8.0,SSE,3.5,-,N/A,Thunderstorm,Clear,150,2013-07-14 19:35:00
3:55 PM,75.2,73.4,94,30.07,6.0,East,8.1,-,N/A,,Mostly Cloudy,100,2013-07-14 19:55:00
4:15 PM,73.4,73.4,100,30.07,6.0,East,8.1,-,N/A,Rain,Light Rain,100,2013-07-14 20:15:00
4:35 PM,73.4,73.4,100,30.07,8.0,ESE,6.9,-,N/A,Thunderstorm,Partly Cloudy,110,2013-07-14 20:35:00
4:55 PM,73.4,73.4,100,30.07,3.0,ESE,4.6,-,N/A,Rain-Thunderstorm,Light Rain,110,2013-07-14 20:55:00
5:15 PM,73.4,-9999,N/A,30.07,1.2,SE,4.6,-,0.02,Rain,Light Rain,130,2013-07-14 21:15:00
5:35 PM,73.4,-9999,N/A,30.06,2.5,SE,3.5,-,0.03,Rain,Light Rain,140,2013-07-14 21:35:00
5:55 PM,73.4,-9999,N/A,30.06,5.0,SE,3.5,-,0.03,Rain-Thunderstorm,Light Rain,140,2013-07-14 21:55:00
6:15 PM,73.4,-9999,N/A,30.06,5.0,Calm,Calm,-,N/A,Rain,Light Rain,0,2013-07-14 22:15:00
6:35 PM,73.4,-9999,N/A,30.06,7.0,SE,3.5,-,N/A,,Light Drizzle,140,2013-07-14 22:35:00
6:55 PM,73.4,-9999,N/A,30.06,7.0,SE,4.6,-,N/A,,Mostly Cloudy,140,2013-07-14 22:55:00
7:15 PM,73.4,-9999,N/A,30.07,7.0,SE,4.6,-,N/A,,Mostly Cloudy,130,2013-07-14 23:15:00
7:35 PM,73.4,-9999,N/A,30.08,9.0,ESE,6.9,-,N/A,,Overcast,110,2013-07-14 23:35:00
7:55 PM,73.4,-9999,N/A,30.09,7.0,East,3.5,-,N/A,,Overcast,90,2013-07-14 23:55:00
8:15 PM,73.4,-9999,N/A,30.09,9.0,ESE,4.6,-,N/A,,Overcast,120,2013-07-15 00:15:00
8:35 PM,71.6,-9999,N/A,30.09,9.0,SSE,3.5,-,N/A,,Overcast,150,2013-07-15 00:35:00
8:55 PM,71.6,-9999,N/A,30.09,10.0,SE,4.6,-,N/A,,Scattered Clouds,140,2013-07-15 00:55:00
9:15 PM,71.6,-9999,N/A,30.09,9.0,Calm,Calm,-,N/A,,Partly Cloudy,0,2013-07-15 01:15:00
9:35 PM,71.6,-9999,N/A,30.10,8.0,Calm,Calm,-,N/A,,Mostly Cloudy,0,2013-07-15 01:35:00
9:55 PM,71.6,-9999,N/A,30.11,8.0,ESE,4.6,-,N/A,,Scattered Clouds,120,2013-07-15 01:55:00
10:15 PM,71.6,-9999,N/A,30.11,9.0,SE,4.6,-,N/A,,Scattered Clouds,140,2013-07-15 02:15:00
10:35 PM,71.6,-9999,N/A,30.11,9.0,East,3.5,-,N/A,,Mostly Cloudy,100,2013-07-15 02:35:00
10:55 PM,71.6,-9999,N/A,30.11,9.0,East,3.5,-,N/A,,Mostly Cloudy,100,2013-07-15 02:55:00
11:15 PM,71.6,-9999,N/A,30.11,9.0,Calm,Calm,-,N/A,,Partly Cloudy,0,2013-07-15 03:15:00
11:35 PM,71.6,-9999,N/A,30.11,7.0,Calm,Calm,-,N/A,,Clear,0,2013-07-15 03:35:00
11:55 PM,71.6,-9999,N/A,30.10,8.0,Calm,Calm,-,N/A,,Clear,0,2013-07-15 03:55:00